Home > Weather > Londrina > Past weeks

Flag for Brazil Past Weather in Londrina, Paraná, Brazil — Yesterday and Last 2 Weeks

Now
59 °F

Sunny.


Feels Like: 58 °F
Forecast: 53 / 76 °F
Wind: 7 mph from Southeast

Location: Londrina Aeroporto

Current Time: Jul 28, 2016 at 9:27:53 AM

Latest Report: Jul 28, 2016 at 9:00 AM


Visibility: 10 mi

Pressure: 30.18 "Hg (28.06 "Hg at 615m altitude)

Humidity: 63%

Dew Point: 46 °F

Location of LondrinaLocation

Past Weather in Londrina — Graph

°F

Londrina Temperature Yesterday

Maximum temperature yesterday: 82 °F (at 2:00 PM)
Minimum temperature yesterday: 61 °F (at 11:00 PM)
Average temperature yesterday: 70 °F

High & Low Weather Summary for the Past Weeks

 TemperatureHumidityPressure
High88 °F (Jul 14, 3:00 PM)100% (Jul 16, 5:00 AM)30.24 "Hg (Jul 16, 5:00 AM)
Low43 °F (Jul 17, 5:00 AM)15% (Jul 27, 4:00 PM)29.86 "Hg (Jul 16, 12:00 AM)
Average64 °F64%30.09 "Hg
* Reported Jul 13 8:00 AM — Jul 28 8:00 AM, Londrina, Weather by CustomWeather, © 2016

Note: Actual official high and low records may vary slightly from our data, if they occured in-between our weather recording intervals... More about our weather records

Advertising

Londrina Weather History for the Previous 24 Hours

Scroll right to see more
 ConditionsComfort  
Time TempWeatherWind HumidityBarometerVisibility
8:00 AM
Thu, Jul 28
55 °FSunny.2 mph67%30.18 "Hg10 mi
7:00 AM54 °FSunny.No wind67%30.15 "Hg10 mi
6:00 AM54 °FSunny.No wind72%30.12 "Hg10 mi
5:00 AM55 °FClear.3 mph63%30.12 "Hg10 mi
4:00 AM57 °FClear.No wind59%30.12 "Hg10 mi
3:00 AM57 °FClear.No wind59%30.12 "Hg10 mi
2:00 AM57 °FClear.2 mph63%30.12 "Hg10 mi
1:00 AM59 °FClear.3 mph59%30.12 "Hg10 mi
12:00 AM61 °FClear.1 mph55%30.12 "Hg10 mi
11:00 PM
Wed, Jul 27
61 °FClear.5 mph52%30.12 "Hg10 mi
10:00 PM64 °FClear.5 mph43%30.12 "Hg10 mi
9:00 PM66 °FClear.6 mph40%30.09 "Hg10 mi
8:00 PM68 °FClear.3 mph35%30.09 "Hg10 mi
7:00 PM72 °FClear.5 mph31%30.09 "Hg10 mi
6:00 PM73 °FClear.3 mph29%30.07 "Hg10 mi
5:00 PM79 °FClear.5 mph20%30.07 "Hg10 mi
4:00 PM81 °FSunny.7 mph15%30.07 "Hg10 mi
3:00 PM81 °FSunny.12 mph16%30.07 "Hg10 mi
2:00 PM82 °FSunny.10 mph17%30.09 "Hg10 mi
1:00 PM79 °FSunny.9 mph23%30.12 "Hg10 mi
12:00 PM77 °FSunny.8 mph22%30.12 "Hg10 mi
11:00 AM75 °FSunny.10 mph25%30.15 "Hg10 mi
10:00 AM72 °FSunny.9 mph33%30.15 "Hg10 mi
9:00 AM66 °FSunny.6 mph73%30.12 "Hg10 mi
Weather by CustomWeather, © 2016

See weather overviewHow to use our weather pages